www.pogodaiklimat.ru

Погода и климат >> Архив погоды >> Великобритания >> Фэр-Айл


ПОГОДА на Фэр-Айл

  • Прогноз погоды на Фэр-Айл
  • Монитор погоды на Фэр-Айл

АРХИВ ПОГОДЫ на Фэр-Айл

Время (UTC), дата Ветер
(напр.,м/с)
 
Видим.   Явления Облачность Т
(С)
Тd
(С)
f
(%)
Тe
(С)
Тes
(С)
Комфортность P
(гПа)
Po
(гПа)
Тmin
(С)
Tmax
(С)
R
(мм)
R24
(мм)
S
(см)
13 18.06 Ю 8 20 км н/о +11.7 +9 +9 1004.7 997.5
14 18.06 Ю 7 24 км в посл. час дождь н/о +11.6 +9 +9 1005.2 998.0
15 18.06 ЮЗ 6 12 км сильн. ливневой дождь н/о +11.6 +10 +11 1005.4 998.2
16 18.06 ЮЗ 7 25 км в посл. час дождь н/о +12.7 +11 +11 1005.6 998.5
17 18.06 ЮЗ 6 21 км н/о +12.3 +11 +11 1005.8 998.6
18 18.06 ЮЗ 5 19 км {ливн. осадки} н/о +12.0 +11 +11 1006.4 999.2 +13.3 0.2
19 18.06 ЮЗ 5 16 км н/о +10.7 +9 +9 1006.5 999.3
20 18.06 ЮЗ 4 24 км в посл. час дождь н/о +10.4 +9 +9 1006.7 999.5
21 18.06 ЮЗ 5 27 км {ливн. осадки} н/о +10.4 +9 +9 1007.0 999.8
22 18.06 ЮЗ 5 24 км н/о +9.8 +8 +8 1007.2 999.9
23 18.06 Ю 4 27 км н/о +9.9 +9 +9 1007.3 1000.1
00 19.06 Ю 4 30 км н/о +10.1 +9 +9 1007.2 999.9 0.0
01 19.06 ЮВ 4 27 км н/о +10.0 +9 +9 1007.0 999.8
02 19.06 В 3 20 км н/о +9.5 +9 +9 1006.6 999.3
03 19.06 Ю 5 30 км н/о +9.9 +8 +8 1006.4 999.2
04 19.06 Ю 5 25 км слаб. ливневой дождь н/о +10.2 +8 +8 1006.3 999.0
05 19.06 Ю 6 29 км в посл. час дождь н/о +10.3 +8 +8 1006.2 999.0
06 19.06 ЮВ 5 35 км в посл. час дождь н/о +10.7 +9 +9 1006.0 998.7 +9.4 0.0
07 19.06 ЮВ 5 30 км н/о +11.5 +10 +10 1005.8 998.6
08 19.06 Ю 5 35 км н/о +11.7 +10 +10 1005.8 998.6
09 19.06 Ю 6 35 км н/о +12.5 +11 +14 1005.5 998.4
10 19.06 Ю 6 25 км н/о +12.9 +11 +11 1005.5 998.3
11 19.06 ЮВ 6 16 км н/о +12.8 +11 +11 1005.5 998.3
12 19.06 ЮВ 5 30 км н/о +13.1 +12 +19 1005.5 998.3
13 19.06 ЮВ 5 27 км н/о +12.8 +11 +11 1005.3 998.2
14 19.06 ЮВ 4 24 км н/о +12.2 +11 +11 1005.2 998.0
15 19.06 ЮВ 4 35 км н/о +11.7 +10 +12 1004.8 997.6
16 19.06 ЮВ 5 25 км в посл. час дождь н/о +11.4 +10 +10 1004.4 997.2
17 19.06 ЮВ 6 22 км н/о +11.5 +9 +9 1004.1 996.9
18 19.06 ЮВ 6 28 км {дождь} н/о +11.6 +10 +10 1003.8 996.6 +13.6 0.0
19 19.06 Ю 5 23 км н/о +11.1 +10 +10 1003.7 996.5
20 19.06 Ю 4 19 км н/о +10.5 +9 +9 1003.8 996.6
21 19.06 В 2 9000 м дым н/о +9.7 +9 +9 1003.7 996.4
22 19.06 Ю 1 14 км в посл. час туман н/о +9.0 +11 +11 1003.8 996.6
23 19.06 Ю 2 15 км н/о +8.5 +8 +8 1003.9 996.6
00 20.06 Ю 1 30 км н/о +9.3 +11 +11 1003.6 996.3
01 20.06 ЮЗ 1 23 км слаб. ливневой дождь н/о +9.5 +11 +11 1003.3 996.1
02 20.06 СЗ 1 40 км в посл. час дождь н/о +8.9 +9 +9 1002.8 995.5
03 20.06 0 50 км н/о +9.3 1002.6 995.4
04 20.06 СВ 3 14 км н/о +9.4 +9 +9 1002.3 995.1
05 20.06 СВ 2 19 км слаб. ливневой дождь н/о +9.8 +9 +9 1002.0 994.8
06 20.06 СВ 3 12 км слаб. дождь {туман} н/о +10.2 +9 +9 1002.0 994.8 +8.1 1
07 20.06 В 2 200 м слаб. дождь н/о +10.2 +10 +10 1002.0 994.7
08 20.06 Ю 3 300 м туман н/о +10.3 +10 +10 1001.8 994.6
09 20.06 ЮЗ 3 12 км ливневой дождь {туман} н/о +9.3 +8 +8 1001.7 994.5
10 20.06 Ю 5 13 км слаб. дождь н/о +9.8 +8 +8 1001.9 994.6
11 20.06 Ю 5 12 км слаб. ливневой дождь н/о +9.6 +8 +8 1002.0 994.8
12 20.06 Ю 5 19 км слаб. дождь {туман} н/о +10.3 +9 +9 1001.9 994.7 7
13 20.06 Ю 6 21 км в посл. час дождь н/о +11.3 +9 +9 1002.1 994.9
14 20.06 Ю 7 45 км н/о +11.8 +10 +10 1002.1 994.9
15 20.06 ЮЗ 7 40 км слаб. ливневой дождь 8/4 450 м
[Cu med, cong Ac trans]
+10.9 +8 +8 1002.3 995.1
16 20.06 ЮЗ 6 45 км в посл. час дождь н/о +11.3 +9 +9 1002.3 995.1
17 20.06 ЮЗ 6 25 км н/о +11.5 +9 +9 1002.4 995.2
18 20.06 ЮЗ 6 23 км {ливн. осадки} н/о +11.1 +9 +9 1002.5 995.3 +12.6 7
19 20.06 ЮЗ 6 29 км н/о +10.8 +9 +9 1002.9 995.7
20 20.06 ЮЗ 9 29 км н/о +10.5 +8 +8 1003.1 995.9
21 20.06 ЮЗ 7
{13}
18 км н/о +10.2 +8 +8 1003.4 996.2
22 20.06 ЮЗ 7 17 км н/о +9.9 +7 +7 1003.8 996.5
23 20.06 ЮЗ 8 15 км н/о +9.7 +7 +7 1004.0 996.8
00 21.06 ЮЗ 8 16 км н/о +9.4 +6 +6 1004.3 997.0
01 21.06 ЮЗ 9 14 км н/о +9.5 +6 +6 1004.4 997.1
02 21.06 ЮЗ 9 15 км н/о +9.4 +6 +6 1004.6 997.4
03 21.06 ЮЗ 9 21 км н/о +9.7 +7 +7 1004.9 997.7
04 21.06 З 8 17 км н/о +9.7 +7 +7 1005.2 997.9
05 21.06 З 9 13 км н/о +9.5 +6 +6 1005.7 998.5
06 21.06 З 7 15 км в посл. час дождь со снегом {ливн. осадки} н/о +9.5 +7 +7 1006.2 999.0 +9.1 1
07 21.06 З 8 14 км в посл. час дождь н/о +9.7 +7 +7 1006.9 999.6
08 21.06 З 7 15 км н/о +10.0 +7 +7 1007.7 1000.5
09 21.06 З 7 19 км в посл. час дождь со снегом {ливн. осадки} н/о +10.4 +8 +9 1008.4 1001.2
10 21.06 З 7 35 км в посл. час дождь н/о +10.6 +8 +8 1009.0 1001.8
11 21.06 З 7 17 км н/о +10.8 +8 +8 1009.6 1002.4
12 21.06 З 7 24 км {ливн. осадки} н/о +11.1 +9 +9 1010.4 1003.2 0.2
13 21.06 З 8 27 км н/о +11.6 +9 +9 1011.3 1004.1
14 21.06 З 8 12 км н/о +11.7 +9 +9 1012.0 1004.7
15 21.06 З 10
{13}
20 км н/о +11.6 +9 +9 1012.6 1005.4
16 21.06 З 10
{15}
18 км н/о +10.8 +8 +8 1013.3 1006.0
17 21.06 З 8
{15}
20 км н/о +10.5 +8 +8 1014.1 1006.8
18 21.06 З 7 25 км н/о +11.1 +9 +9 1014.7 1007.4 +12.0 0.2
19 21.06 З 7 20 км н/о +10.5 +8 +8 1015.2 1007.9
20 21.06 З 7 17 км н/о +9.9 +7 +7 1015.8 1008.5
21 21.06 З 6 18 км н/о +9.6 +7 +7 1016.6 1009.3
22 21.06 З 7 16 км н/о +9.4 +7 +7 1017.0 1009.7
23 21.06 З 8 19 км н/о +9.7 +7 +7 1017.5 1010.2
00 22.06 З 8 18 км н/о +9.6 +7 +7 1017.9 1010.6
01 22.06 ЮЗ 8 17 км н/о +9.4 +6 +6 1018.1 1010.7
02 22.06 З 8 21 км н/о +9.3 +6 +6 1018.3 1010.9
03 22.06 ЮЗ 7 23 км н/о +9.1 +6 +6 1018.4 1011.0
04 22.06 ЮЗ 6 24 км н/о +9.3 +7 +7 1018.5 1011.1
05 22.06 ЮЗ 6 23 км н/о +9.8 +7 +7 1018.5 1011.2
06 22.06 ЮЗ 6 25 км н/о +10.1 +8 +8 1018.7 1011.4 +9.1
07 22.06 ЮЗ 6 30 км н/о +10.6 +8 +8 1018.8 1011.5
08 22.06 Ю 6 27 км н/о +11.4 +9 +9 1019.1 1011.8
09 22.06 Ю 6 50 км н/о +11.0 +9 +9 1019.3 1012.0
10 22.06 Ю 7 25 км н/о +11.1 +9 +9 1019.4 1012.1
11 22.06 ЮЗ 7 28 км н/о +11.9 +10 +10 1019.5 1012.2
12 22.06 Ю 7 35 км н/о +11.8 +10 +10 1019.6 1012.3
13 22.06 Ю 7 22 км н/о +12.7 +11 +11 1019.6 1012.3
14 22.06 Ю 7 40 км н/о +12.3 +10 +10 1019.6 1012.3
15 22.06 Ю 6 25 км н/о +12.5 +11 +14 1019.6 1012.3
16 22.06 ЮЗ 6 45 км н/о +11.8 +10 +10 1019.7 1012.4
17 22.06 ЮЗ 5 35 км н/о +12.4 +11 +11 1019.8 1012.5
18 22.06 ЮЗ 4 45 км н/о +12.2 +11 +11 1019.9 1012.6 +13.3
19 22.06 ЮЗ 4 40 км н/о +11.6 +10 +10 1020.0 1012.7
20 22.06 З 3 35 км н/о +11.2 +11 +11 1020.3 1013.0
21 22.06 З 3 35 км н/о +11.1 +10 +10 1020.7 1013.4
22 22.06 З 3 27 км н/о +11.0 +10 +10 1020.9 1013.5
23 22.06 З 3 21 км н/о +10.6 +10 +10 1021.3 1014.0
00 23.06 СЗ 4 22 км н/о +10.6 +9 +9 1021.4 1014.1
01 23.06 СЗ 4 15 км н/о +10.4 +9 +9 1021.6 1014.2
02 23.06 СЗ 5 12 км н/о +10.0 +8 +8 1021.8 1014.4
03 23.06 С 1 23 км н/о +9.9 +11 +11 1022.3 1014.9
04 23.06 0 18 км н/о +10.1 1022.6 1015.2
05 23.06 С 3 19 км н/о +10.4 +10 +10 1022.8 1015.5
06 23.06 С 4 21 км н/о +10.2 +9 +9 1023.3 1015.9 +9.9
07 23.06 С 4 21 км слаб. ливневой дождь н/о +10.4 +9 +9 1023.7 1016.3
08 23.06 СВ 5 28 км в посл. час дождь н/о +10.8 +9 +9 1024.1 1016.8
09 23.06 СВ 5 21 км {дождь} н/о +11.0 +9 +12 1024.5 1017.1
10 23.06 СВ 5 30 км н/о +11.5 +10 +10 1024.9 1017.6
11 23.06 СВ 5 29 км н/о +12.4 +11 +11 1025.2 1017.9
12 23.06 СВ 6 18 км {дождь} н/о +12.6 +11 +13 1025.7 1018.3 0.0
13 23.06 СВ 5 50 км н/о +11.7 +10 +10 1025.9 1018.6
14 23.06 СВ 5 40 км н/о +12.1 +11 +11 1025.9 1018.6
15 23.06 СВ 5 27 км н/о +12.5 +11 +11 1025.7 1018.4
16 23.06 СВ 6 30 км н/о +12.2 +10 +10 1025.7 1018.4
17 23.06 В 5 28 км н/о +11.8 +10 +10 1025.9 1018.5
18 23.06 В 6 30 км н/о +11.5 +10 +10 1026.0 1018.6 +13.1 0.0
19 23.06 В 6 22 км н/о +11.3 +9 +9 1026.2 1018.9
20 23.06 В 5 19 км н/о +11.2 +9 +9 1026.7 1019.4
21 23.06 В 5 24 км н/о +11.2 +9 +9 1026.8 1019.5
22 23.06 В 6 29 км н/о +11.4 +10 +10 1027.1 1019.7
23 23.06 В 5 30 км н/о +11.5 +10 +10 1027.3 1019.9
00 24.06 В 5 35 км н/о +11.4 +10 +10 1027.2 1019.8
01 24.06 СВ 5 18 км н/о +11.0 +9 +9 1026.8 1019.4
02 24.06 СВ 4 6000 м дым н/о +10.9 +9 +9 1026.7 1019.4
03 24.06 СВ 4 3400 м дым н/о +10.9 +9 +9 1026.5 1019.2
04 24.06 В 5 2300 м дым н/о +10.9 +9 +9 1026.4 1019.0
05 24.06 В 5 3400 м дым н/о +11.2 +10 +10 1026.5 1019.2
06 24.06 СВ 6 4400 м дым н/о +11.2 +9 +9 1026.3 1018.9 +10.8
07 24.06 В 5 8000 м дым н/о +11.2 +10 +10 1026.4 1019.0
08 24.06 СВ 5 9000 м дым н/о +11.4 +10 +10 1026.5 1019.1
09 24.06 В 6 9000 м дым н/о +11.3 +9 +9 1026.3 1018.9
10 24.06 СВ 6 12 км н/о +11.3 +9 +9 1025.9 1018.5
11 24.06 СВ 6 15 км н/о +11.3 +9 +9 1025.9 1018.5
12 24.06 СВ 7 17 км н/о +11.4 +9 +9 1026.0 1018.7
13 24.06 СВ 6 18 км н/о +11.9 +10 +10 1026.1 1018.7
14 24.06 СВ 6 9000 м слаб. ливневой дождь н/о +11.4 +9 +9 1025.7 1018.4
15 24.06 СВ 8 13 км слаб. дождь н/о +11.3 +9 +9 1025.1 1017.8
16 24.06 СВ 8 11 км слаб. ливневой дождь н/о +10.9 +8 +8 1024.8 1017.5
17 24.06 СВ 8 11 км в посл. час дождь н/о +11.0 +8 +8 1024.4 1017.1
18 24.06 СВ 8 15 км {дождь} н/о +10.9 +8 +8 1024.2 1016.8 +12.3 0.8
19 24.06 С 8 2700 м слаб. ливневой дождь н/о +10.9 +8 +8 1023.9 1016.6
20 24.06 С 8 8000 м в посл. час дождь н/о +10.6 +8 +8 1023.8 1016.4
21 24.06 С 8 400 м дождь {морось} ?/? +10.5 +8 +8 1023.8 1016.5
22 24.06 С 9 700 м туман н/о +10.5 +7 +7 1023.7 1016.4
23 24.06 С 8 1200 м дождь н/о +10.5 +8 +8 1023.7 1016.3
00 25.06 С 8 3600 м дождь н/о +10.5 +8 +8 1023.9 1016.5 7
01 25.06 С 8 3900 м дождь н/о +10.4 +8 +8 1023.9 1016.5
02 25.06 С 10 6000 м дождь н/о +10.5 +7 +7 1023.5 1016.1
03 25.06 С 11
{14}
9000 м слаб. дождь н/о +10.6 +7 +7 1023.2 1015.9
04 25.06 С 8
{14}
8000 м слаб. дождь н/о +10.5 +8 +8 1023.9 1016.5
05 25.06 0 11 км слаб. дождь н/о +10.2 1024.1 1016.8
06 25.06 С 9 13 км в посл. час дождь со снегом {туман} н/о +10.0 +7 +7 1024.1 1016.7 +10.0 14
07 25.06 С 8 19 км н/о +10.2 +7 +7 1024.7 1017.3
08 25.06 0 22 км н/о +11.0 1025.3 1017.9
09 25.06 0 19 км н/о +11.4 1025.5 1018.1
10 25.06 0-11
{13}
29 км н/о +12.0 1025.8 1018.4
11 25.06 С 8 27 км н/о +12.5 +10 +10 1025.6 1018.3
12 25.06 0 18 км н/о +12.3 1026.0 1018.7
13 25.06 0 16 км н/о +12.4 1026.3 1019.0

 

Местоположение метеостанции Фэр-Айл (Великобритания): широта 59.53 долгота -1.63 высота над уровнем моря 57 м.

В архиве по умолчанию представлена погода на Фэр-Айл за последнюю неделю. Архивные данные за месяц целиком и за предыдущие месяцы, начиная с января 2011 года, Вы можете получить, выбрав интересующий диапазон дат из раскрывающегося списка и нажав кнопку "Ввод!".


*Определитесь, кто Вы:
робот инопланетянин человек

Внимание! Время в таблицах - всемирное. Для получения местного времени необходимо прибавить поправку, которая равна 0 ч.

Смотрите также архив погоды в соседних городах и на ближайших метеорологических станциях:

Погода на Фуле (Великобритания) (70 км)
Погода в Леруике (Великобритания) (71 км)
Погода в Керкуолле (Великобритания) (97 км)
Погода в Болтасаунде (Великобритания) (142 км)
Погода в Уике (Великобритания) (146 км)
Погода на Сул-Скерри (Великобритания) (165 км)
Погода на Алтнахарре (Великобритания) (213 км)
Погода в Лоссимуте (Великобритания) (224 км)
Погода в Тейн-Рендже (Великобритания) (233 км)
Погода в Кинлоссе (Великобритания) (237 км)

Пояснения к столбцам:

Ветер - указаны скорость ветра в м/с - средняя за 10 мин, порывы в срок и между сроками (в фигурных скобках) и направление, откуда дует ветер: С - северный, СВ - северо-восточный, В - восточный, ЮВ - юго-восточный, Ю - южный, ЮЗ - юго-западный, З - западный, СЗ - северо-западный.
Видимость - горизонтальная дальность видимости в метрах или километрах. При видимости от 1 до 10 км при отсутствии осадков обычно наблюдается дымка, при ухудшении видимости до 1 км и менее - туман. В сухую погоду видимость может ухудшаться дымом, пылью или мглою.
Явления - указаны атмосферные явления, наблюдавшиеся в срок или в последний час перед сроком; фигурными скобками обозначены явления, наблюдавшиеся между сроками (за 1-3 часа до срока); квадратными скобками обозначены град или гололедные отложения с указанием их диаметра в мм.
Облачность - указаны через наклонную черту общая и нижняя облачность в баллах и высота нижней границы облаков в метрах; квадратными скобками обозначены формы облаков: Ci - перистые, Cs - перисто-слоистые, Cc - перисто-кучевые, Ac - высококучевые, As - высокослоистые, Sc - слоисто-кучевые, Ns - слоисто-дождевые, Cu - кучевые, Cb - кучево-дождевые. Подробнее классификацию облаков см. в Атласе облаков (PDF).
T - Температура воздуха - температура, измеренная на высоте 2 м над землей.
Td - Температура точки росы - температура, при понижении до которой содержащийся в воздухе водяной пар достигнет насыщения.
f - Относительная влажность воздуха - влажноcть воздуха, измеренная на высоте 2 м над землей.
Te - Эффективная температура - температура, которую ощущает одетый по сезону человек в тени. Характеристика душности погоды. При расчете учитывается влияние влажности воздуха и скорости ветра на теплоощущения человека.
Tes - Эффективная температура на солнце - температура, которую ощущает человек, с поправкой на солнечный нагрев. Характеристика знойности погоды. Зависит от высоты солнца над горизонтом, облачности и скорости ветра. Ночью, в пасмурную погоду, а также при ветре 12 м/с и более поправка равна нулю.
P - Атмосферное давление - приведенное к уровню моря атмосферное давление.
Po - Атмосферное давление - измеренное на уровне метеостанции атмосферное давление.
Tmin - Минимальная температура - минимум температуры воздуха на высоте 2 м над землей.
Tmax - Максимальная температура - максимум температуры воздуха на высоте 2 м над землей.
R - Количество осадков - Количество выпавших осадков за период времени, мм. При наведении курсора мыши на число - период времени, за который выпало указанное количество осадков.
R24 - Количество осадков - Количество выпавших осадков за 24 часа, мм.
S - Снежный покров - Высота снежного покрова, см. При наведении курсора мыши на число - состояние снежного покрова и степень покрытия местности в баллах.